Pittsburgh, PA

1:28 AM EST on December 16, 2019 (GMT -0500)
Pittsburgh International

Weather History for KPIT - October, 2019

Change the Weather History Date:

Thursday, October 24, 2019

  Actual Average Record
Temperature  
Mean Temperature 53 °F 50 °F  
Max Temperature 68 °F 60 °F 81 °F (1963)
Min Temperature 38 °F 41 °F 21 °F (1969)
Degree Days  
Heating Degree Days 12 15  
Month to date heating degree days 225 277  
Since 1 July heating degree days 233 391  
Cooling Degree Days 0 0  
Month to date cooling degree days 37 6  
Year to date cooling degree days 934 734  
Growing Degree Days 3 (Base 50)    
Moisture  
Dew Point 34 °F    
Average Humidity 52    
Maximum Humidity 74    
Minimum Humidity 27    
Precipitation  
Precipitation 0.00 in 0.07 in 1.15 in (1871)
Month to date precipitation 3.72 1.72  
Year to date precipitation 43.81 31.54  
Snow  
Snow 0.00 in 0.10 in 3.00 in (1917)
Month to date snowfall 0.0 0.2  
Snow Depth 0.00 in    
Sea Level Pressure  
Sea Level Pressure 30.25 in    
Wind  
Wind Speed 4 mph ()    
Max Wind Speed 14 mph    
Max Gust Speed 19 mph    
Visibility 10.0 miles    
Events      
T = Trace of Precipitation, MM = Missing Value Source: Averaged Metar Reports

Daily Weather History Graph

Daily Weather History Graph

Search for Another Location

Airport or City:

Astronomy

Oct. 24, 2019 Rise Set
Actual Time 7:41 AM EDT 6:28 PM EDT
Civil Twilight 7:13 AM EDT 6:56 PM EDT
Nautical Twilight 6:41 AM EDT 7:27 PM EDT
Astronomical Twilight 6:10 AM EDT 7:59 PM EDT
Moon 3:08 AM EDT (10/24) 4:56 PM EDT (10/24)
Length of Visible Light 11h 42m
Length of Day
10h 46m
Waning Crescent, 17% of the Moon is Illuminated
Oct 24
Waning Crescent
Oct 27
New
Nov 4
First Quarter
Nov 12
Full
Nov 19
Last Quarter

Hourly Weather History & Observations

Time (EDT) Temp. Windchill Dew Point Humidity Pressure Visibility Wind Dir Wind Speed Gust Speed Precip Events Conditions
12:51 AM 45.0 °F 42.6 °F 30.9 °F 58% 30.22 in 10.0 mi South 4.6 mph - N/A   Clear
1:51 AM 44.1 °F 42.5 °F 30.9 °F 60% 30.22 in 10.0 mi South 3.5 mph - N/A   Clear
2:51 AM 44.1 °F 41.5 °F 30.9 °F 60% 30.22 in 10.0 mi SSE 4.6 mph - N/A   Partly Cloudy
3:51 AM 42.1 °F - 32.0 °F 67% 30.23 in 10.0 mi Calm Calm - N/A   Scattered Clouds
4:51 AM 41.0 °F 39.0 °F 32.0 °F 70% 30.24 in 10.0 mi SSE 3.5 mph - N/A   Scattered Clouds
5:51 AM 39.9 °F 36.7 °F 32.0 °F 73% 30.25 in 10.0 mi SSE 4.6 mph - N/A   Scattered Clouds
6:51 AM 39.9 °F 35.1 °F 32.0 °F 73% 30.26 in 10.0 mi South 6.9 mph - N/A   Partly Cloudy
7:51 AM 42.1 °F - 30.9 °F 65% 30.27 in 10.0 mi Calm Calm - N/A   Scattered Clouds
8:51 AM 43.0 °F 41.3 °F 33.1 °F 68% 30.29 in 10.0 mi SSE 3.5 mph - N/A   Scattered Clouds
9:51 AM 50.0 °F - 34.0 °F 54% 30.28 in 10.0 mi South 6.9 mph - N/A   Partly Cloudy
10:51 AM 57.0 °F - 32.0 °F 39% 30.28 in 10.0 mi SSW 9.2 mph - N/A   Partly Cloudy
11:51 AM 61.0 °F - 33.1 °F 35% 30.28 in 10.0 mi Variable 6.9 mph - N/A   Partly Cloudy
12:51 PM 64.0 °F - 33.1 °F 31% 30.25 in 10.0 mi SW 10.4 mph 16.1 mph N/A   Partly Cloudy
1:51 PM 66.0 °F - 37.0 °F 34% 30.24 in 10.0 mi WSW 10.4 mph - N/A   Partly Cloudy
2:51 PM 66.9 °F - 34.0 °F 30% 30.22 in 10.0 mi SSW 13.8 mph - N/A   Scattered Clouds
3:51 PM 68.0 °F - 34.0 °F 28% 30.22 in 10.0 mi SW 10.4 mph - N/A   Scattered Clouds
4:51 PM 68.0 °F - 33.1 °F 27% 30.22 in 10.0 mi Variable 6.9 mph 18.4 mph N/A   Scattered Clouds
5:51 PM 66.0 °F - 34.0 °F 30% 30.22 in 10.0 mi SW 4.6 mph - N/A   Scattered Clouds
6:51 PM 61.0 °F - 37.9 °F 42% 30.24 in 10.0 mi SW 4.6 mph - N/A   Scattered Clouds
7:51 PM 57.0 °F - 37.9 °F 49% 30.26 in 10.0 mi Calm Calm - N/A   Mostly Cloudy
8:51 PM 55.0 °F - 39.0 °F 55% 30.27 in 10.0 mi Calm Calm - N/A   Overcast
9:51 PM 52.0 °F - 41.0 °F 66% 30.28 in 10.0 mi Calm Calm - N/A   Mostly Cloudy
10:51 PM 48.9 °F - 41.0 °F 74% 30.28 in 10.0 mi Calm Calm - N/A   Scattered Clouds
11:51 PM 52.0 °F - 42.1 °F 69% 30.28 in 10.0 mi Variable 4.6 mph - N/A   Partly Cloudy